This is the latest recevied weather packets stored in our database for station/object PY5KT-13. If no packets are shown the sender has not sent any weather packets the latest 10 day(s).
| Time | Temp. | Humidity | Pressure | Rain* | Wind** | Luminosity | Snow |
|---|---|---|---|---|---|---|---|
| 1777515769 | 14.44° C | 99% | 1018.8 hPa | 0 mm | - | 0 W/m² | - |
| 1777515467 | 14.44° C | 99% | 1018.6 hPa | 0.25 mm | - | 0 W/m² | - |
| 1777515165 | 14.44° C | 99% | 1018.4 hPa | 0.25 mm | - | 0 W/m² | - |
| 1777514863 | 14.44° C | 99% | 1018.4 hPa | 0.25 mm | - | 0 W/m² | - |
| 1777514560 | 14.44° C | 99% | 1018.5 hPa | 0.25 mm | - | 0 W/m² | - |
| 1777514259 | 14.44° C | 99% | 1018.5 hPa | 0.51 mm | - | 0 W/m² | - |
| 1777513956 | 14.44° C | 99% | 1018.7 hPa | 0.51 mm | - | 0 W/m² | - |
| 1777513654 | 14.44° C | 99% | 1018.6 hPa | 0.51 mm | - | 37 W/m² | - |
| 1777513352 | 14.44° C | 99% | 1018.3 hPa | 0.51 mm | - | 37 W/m² | - |
| 1777513050 | 14.44° C | 99% | 1018.3 hPa | 0.76 mm | - | 37 W/m² | - |
| 1777512748 | 14.44° C | 99% | 1018.1 hPa | 0.76 mm | - | 37 W/m² | - |
| 1777512446 | 14.44° C | 99% | 1018.1 hPa | 1.02 mm | - | 37 W/m² | - |
| 1777512144 | 14.44° C | 99% | 1018.3 hPa | 1.02 mm | - | 37 W/m² | - |
| 1777511842 | 14.44° C | 99% | 1018.6 hPa | 1.52 mm | - | 37 W/m² | - |
| 1777511540 | 14.44° C | 99% | 1018.7 hPa | 1.27 mm | - | 37 W/m² | - |
| 1777511239 | 14.44° C | 99% | 1018.9 hPa | 2.29 mm | - | 37 W/m² | - |
| 1777510936 | 14.44° C | 99% | 1018.8 hPa | 2.29 mm | - | 37 W/m² | - |
| 1777510634 | 14.44° C | 99% | 1018.7 hPa | 2.79 mm | - | 38 W/m² | - |
| 1777510332 | 14.44° C | 99% | 1018.8 hPa | 2.79 mm | - | 37 W/m² | - |
| 1777510030 | 14.44° C | 99% | 1018.9 hPa | 3.81 mm | - | 37 W/m² | - |
| 1777509728 | 14.44° C | 99% | 1018.9 hPa | 3.81 mm | - | 37 W/m² | - |
| 1777509426 | 14.44° C | 99% | 1019.1 hPa | 4.57 mm | - | 37 W/m² | - |
| 1777509123 | 14.44° C | 99% | 1018.8 hPa | 4.32 mm | - | 38 W/m² | - |
| 1777508821 | 14.44° C | 99% | 1018.5 hPa | 4.83 mm | - | 38 W/m² | - |
| 1777508519 | 14.44° C | 99% | 1019 hPa | 4.57 mm | - | 38 W/m² | - |
* Rain latest hour (hover to see other rain measurements)
** Current wind speed in m/s (hover to see current wind gust speed)